星链-30141 (STARLINK-30141 )

导读

STARLINK-30141是美国SpaceX公司星链星座的成员,于2023年8月11日发射入轨,属于星链快速扩张阶段部署的卫星。作为低地球轨道通信卫星,它依托星链技术,为全球偏远地区、海上及航空场景提供高速低延迟宽带互联网服务,助力星链实现全球无缝网络覆盖,是目前全球规模最大低轨卫星组网的重要组成部分。

Basic Information
目录编号:
57620
目录名称:
STARLINK-30141
国际标识:
2023-119U
轨道中心:
EARTH
卫星名称:
星链-30141
卫星全名:
星链-30141 (STARLINK-30141 )
卫星状态:
在轨 (已飞行1039 天)
发射日期:
2023-08-11 UTC
国别 :
美国 (US)
星等 :
--
Orbit Information
数据来源 国际轨道数据 AOE轨道数据
星历时间 2026-06-14T01:11:18+0800
1天前
查看轨道信息
2026-06-15T07:00:00+0800
5小时前
查看轨道信息
半长轴 6861.199km 6861.201km
偏心率 0.0001415 0.0000027
轨道倾角 42.998° 43.003°
近地点辐角 294.191° 193.310°
升交点赤经 259.182° 252.162°
平近点角 65.879° 165.708°
近地点 482.091km 483.045km
远地点 484.033km 483.083km
周期 94.267分钟 94.267分钟
每日圈数 15.27576 15.275751
Detailed Information
固有亮度:
5
最大亮度:
0.3
卫星平台:
Starlink v2.0 mini
覆盖范围:
全球
运营商:
太空探索技术公司
运营商所在国:
美国
制造商(研发单位):
太空探索技术公司
制造商所在国:
美国
使用方式:
暂无
Satellite Introduction
星链(Starlink)计划是由太空探索技术公司(SpaceX)提出的一个巨型低轨卫星互联网星座项目,计划在2019年至2024年间在太空搭建由约1.2万颗卫星组成的“星链”网络,其中1584颗将部署在地球上空550千米处的近地轨道,并从2020年开始工作。该卫星仍在工作。
2D Orbit Map
3D Orbit Map
Orbit Altitude Analysis Chart
Orbit Inclination Analysis Chart
Orbit Comprehensive Analysis Chart
View Comprehensive Chart